Hourly Weather Roundup
Issued by NWS Central Illinois

Home | Current Version | Previous Version | Text Only | Print | Product List | Glossary On
Versions: 1 2 3 4 5 6 7 8 9 10 11 12 13 14 15 16 17 18 19 20 21 22 23 24 25 26 27 28 29 30 31 32 33 34 35 36 37 38 39 40 41 42 43 44 45 46 47 48 49 50
000
NZUS43 KILX 221710
HWRILX

AREA WEATHER ROUNDUP
NATIONAL WEATHER SERVICE, LINCOLN IL
1200 PM CDT FRI AUG 22 2014


CITY           SKY/WX    TMP DP  RH WIND       PRES   REMARKS
BLOOMINGTON    RAIN      73  70  91 W9        30.01S FOG
CHAMPAIGN      LGT RAIN  74  72  93 SW10      29.99F
DECATUR        CLOUDY    77  73  87 SE5       30.00F
FLORA          PTSUNNY   84  73  70 W5        30.03S HX  90
GALESBURG      CLOUDY    76  74  93 S7        30.00R
JACKSONVILLE   LGT RAIN  82  77  85 S6        30.03R HX  89
LACON          RAIN      72  70  95 SW12      29.96F
LAWRENCEVILLE  PTSUNNY   85  74  69 NW7       30.03R HX  92
LITCHFIELD     CLOUDY    83  74  73 E7        30.02S HX  90
$$


CITY           SKY/WX    TMP DP  RH WIND       PRES   REMARKS
LINCOLN        CLOUDY    77  74  89 S5        29.97F
MACOMB         CLOUDY    77  76  98 SE8       30.02F
MATTOON        CLOUDY    79  75  87 S3        30.01R HX  83
MT CARMEL AP   PTSUNNY   88  75  66 W6        30.03R HX  97
OLNEY-NOBLE AP PTSUNNY   84  75  74 CALM      30.03S HX  92
PARIS          CLOUDY    79  75  86 SW8       30.00F HX  83
PEORIA         LGT RAIN  74  71  91 S7        29.99F FOG
PONTIAC        CLOUDY    75  73  94 S7        29.96F
RANTOUL        LGT RAIN  75  71  86 W9        29.99F
ROBINSON       PTSUNNY   84  76  75 CALM      30.03S HX  93
SPRINGFIELD    CLOUDY    80  74  81 S7        30.00F HX  85
TAYLORVILLE    CLOUDY    79  73  83 SE7       30.01F HX  82
$$

...REGIONAL REPORTS...


CITY           SKY/WX    TMP DP  RH WIND       PRES   REMARKS
CHICAGO O`HARE CLOUDY    80  73  79 W10       29.96S HX  84
KANKAKEE       CLOUDY    78  73  84 SW6       29.97F HX  81
MOLINE         CLOUDY    75  72  90 CALM      29.97R
MOUNT VERNON   PTSUNNY   86  73  66 SW6       30.03F HX  93
PITTSFIELD     CLOUDY    82  74  79 S5        30.02F HX  87
QUINCY         CLOUDY    81  75  82 SE6       30.00S HX  87
ROCKFORD       CLOUDY    80  72  76 SW7       29.96S HX  84
$$


CITY           SKY/WX    TMP DP  RH WIND       PRES   REMARKS
BURLINGTON     CLOUDY    79  74  84 S9        29.99R HX  82
CEDAR RAPIDS   PTSUNNY   83  73  72 W7        29.95R HX  89
DES MOINES     PTSUNNY   83  74  74 S7        29.94S HX  89
KIRKSVILLE     PTSUNNY   83  75  77 VRB5      29.98S HX  90
OTTUMWA        MOSUNNY   81  73  76 S6        29.95R HX  86
ST LOUIS       PTSUNNY   90  73  57 VRB3      30.02R HX  98
$$


CITY           SKY/WX    TMP DP  RH WIND       PRES   REMARKS
TERRE HAUTE    CLOUDY    81  73  76 SW6       29.99F HX  86
EVANSVILLE     PTSUNNY   86  74  67 W7        30.04S HX  94
INDIANAPOLIS   CLOUDY    78  72  81 W5        30.00S HX  80
LAFAYETTE      CLOUDY    76  72  87 W5        29.99F
MADISON        MOSUNNY   81  74  79 S6        29.95S HX  86
MILWAUKEE      CLOUDY    74  70  87 E5        29.96F
$$




USA.gov is the U.S. government's official web portal to all federal, state and local government web resources and services.